Regional Weather Roundup
Issued by NWS Goodland, KS

Home | Current Version | Previous Version | Graphics & Text | Print | Product List | Glossary On
Versions: 1 2 3 4 5 6 7 8 9 10 11 12 13 14 15 16 17 18 19 20 21 22 23 24 25 26 27 28 29 30 31 32 33 34 35 36 37 38 39 40 41 42 43 44 45 46 47 48 49 50
000
ASUS43 KGLD 262359
RWRGLD

GOODLAND FORECAST AREA HOURLY WEATHER ROUNDUP
NATIONAL WEATHER SERVICE GOODLAND KS
600 PM MDT MON SEP 26 2016

...OFFICIAL OBSERVATIONS...

CITY           SKY/WX    TMP DP  RH WIND       PRES   REMARKS
GOODLAND KS    CLEAR     74  38  27 N8        30.22S
HILL CITY KS   CLEAR     75  48  38 N5        30.16S
IMPERIAL NEB   CLEAR     75  37  25 N10       30.20F
MCCOOK NEB     CLEAR     74  43  32 NW6       30.16F
AKRON CO       CLEAR     73  35  25 N7        30.27S
BURLINGTON CO  CLEAR     75  32  20 N8        30.26S
LIMON CO       CLEAR     72  30  21 NE9       30.31S
$$

...UNOFFICIAL OBSERVATIONS...

CITY           SKY/WX    TMP DP  RH WIND       PRES   REMARKS
COLBY KS       CLEAR     75  45  33 N7        30.21S
LENORA KS        N/A     75  32  20 MISG        N/A
NORTON KS      CLEAR     75  30  19 CALM      30.15S
SHARON SPRINGS   N/A     76  40  27 CALM        N/A
KIT CARSON CO    N/A     77  38  24 MISG        N/A
$$



USA.gov is the U.S. government's official web portal to all federal, state and local government web resources and services.